Regional Weather Roundup
Issued by NWS

Home | Current Version | Previous Version | Graphics & Text | Print | Product List | Glossary On
Versions: 1 2 3 4 5 6 7 8 9 10 11 12 13 14 15 16 17 18 19 20 21 22 23 24 25 26 27 28 29 30 31 32 33 34 35 36 37 38 39 40 41 42 43 44 45 46 47 48 49 50
000
ASUS43 KMKX 261800
RWRWI

WISCONSIN REGIONAL WEATHER ROUNDUP
NATIONAL WEATHER SERVICE MILWAUKEE/SULLIVAN WI
100 PM CDT SUN APR 26 2015

NOTE: "FAIR" INDICATES FEW OR NO CLOUDS BELOW 12,000 FEET WITH NO
SIGNIFICANT WEATHER AND/OR OBSTRUCTIONS TO VISIBILITY.

WIZ001-002-006>008-014>016-023>028-261900-
NORTHWEST WISCONSIN

CITY           SKY/WX    TMP DP  RH WIND       PRES   REMARKS
SUPERIOR ARPT  SUNNY     45  25  46 NE9       30.20S
ASHLAND        SUNNY     50  32  50 NE12      30.19S
6HR MIN TEMP:  27; 6HR MAX TEMP:  51;

HAYWARD        SUNNY     55  19  24 N9        30.13F
6HR MIN TEMP:  28; 6HR MAX TEMP:  55;

SIREN          SUNNY     55  20  25 N6        30.14S
CUMBERLAND     SUNNY     54  21  28 N8        30.12F
RICE LAKE      SUNNY     54  22  27 N7        30.13F
CHETEK         SUNNY     55  21  27 E7        30.12S
LADYSMITH      SUNNY     56  21  25 NE9       30.12F
6HR MIN TEMP:  30; 6HR MAX TEMP:  56;

EAU CLAIRE     NOT AVBL
MENOMONIE      SUNNY     56  17  21 N6        30.11F
6HR MIN TEMP:  32; 6HR MAX TEMP:  57;

NEW RICHMOND   SUNNY     56  18  23 NW7       30.13F
OSCEOLA        SUNNY     56  22  26 NE5       30.16S
$$

WIZ003>005-009-010-017-018-261900-
NORTH CENTRAL WISCONSIN

CITY           SKY/WX    TMP DP  RH WIND       PRES   REMARKS
MANITOWISH WTR SUNNY     53  21  28 NE12      30.09F
ARBOR VITAE    SUNNY     55  18  23 NE9       30.08F
WOODRUFF       SUNNY     55  18  23 NE9       30.08F
RHINELANDER    SUNNY     54  19  25 NW13G20   30.07F
6HR MIN TEMP:  30; 6HR MAX TEMP:  55;

EAGLE RIVER    SUNNY     53  16  22 NE13G18   30.07F
LAND O LAKES   SUNNY     52  19  27 N12G21    30.09F
PHILLIPS       SUNNY     53  21  28 N3        30.09F
6HR MIN TEMP:  27; 6HR MAX TEMP:  54;

TOMAHAWK       SUNNY     55  20  25 CALM      30.08F
MEDFORD        SUNNY     53  23  31 N10       30.08F
MERRILL        SUNNY     56  22  26 NE6       30.07F
$$

WIZ029-030-035-036-043>047-261900-
CENTRAL WISCONSIN

CITY           SKY/WX    TMP DP  RH WIND       PRES   REMARKS
WAUSAU         SUNNY     57  21  24 N14       30.05F
6HR MIN TEMP:  33; 6HR MAX TEMP:  57;

MOSINEE        SUNNY     54  21  28 NW8       30.07F
MARSHFIELD     SUNNY     56  23  27 VRB3      30.08F
6HR MIN TEMP:  35; 6HR MAX TEMP:  57;

STEVENS POINT  SUNNY     54  20  26 N10G18    30.06F
WAUPACA        SUNNY     59  20  22 N9        30.06F
6HR MIN TEMP:  33; 6HR MAX TEMP:  59;

WAUTOMA        NOT AVBL
WISC RAPIDS    SUNNY     56  17  21 NE9       30.08F
6HR MIN TEMP:  35; 6HR MAX TEMP:  58;

CAMP DOUGLAS   NOT AVBL
$$

WIZ011>013-019>022-031-037>040-048>050-261900-
NORTHEAST WISCONSIN

CITY           SKY/WX    TMP DP  RH WIND       PRES   REMARKS
ANTIGO         SUNNY     54  22  29 N12       30.06F
SHAWANO        SUNNY     60  23  24 E8        30.05F
6HR MIN TEMP:  36; 6HR MAX TEMP:  60;

OCONTO         SUNNY     54  28  36 SE10      30.06S
STURGEON BAY   SUNNY     52  25  35 N10       30.08F
6HR MIN TEMP:  36; 6HR MAX TEMP:  52;

GREEN BAY      SUNNY     56  26  31 NE14      30.06F
6HR MIN TEMP:  35; 6HR MAX TEMP:  57;

MANITOWOC      NOT AVBL
APPLETON       SUNNY     55  21  26 N6        30.06F
CLINTONVILLE   SUNNY     55  19  24 E6        30.06S
OSHKOSH        SUNNY     55  26  32 NE13      30.05F
6HR MIN TEMP:  34; 6HR MAX TEMP:  56;

$$

WIZ032>034-041-042-053>061-261900-
SOUTHWEST WISCONSIN

CITY           SKY/WX    TMP DP  RH WIND       PRES   REMARKS
LA CROSSE      SUNNY     60  24  25 N9        30.09F
6HR MIN TEMP:  35; 6HR MAX TEMP:  60;

SPARTA         SUNNY     56  20  24 N7        30.09F
VIROQUA        SUNNY     54  24  30 N8        30.08S
BOSCOBEL       SUNNY     59  25  27 VRB6      30.08F
6HR MIN TEMP:  28; 6HR MAX TEMP:  59;

PRAIRIE DU CHI SUNNY     55  25  31 W6        30.08S
PLATTEVILLE    SUNNY     54  27  35 E6        30.07S
$$

WIZ056-057-062-063-064-067-068-261900-
SOUTH CENTRAL WISCONSIN

CITY           SKY/WX    TMP DP  RH WIND       PRES   REMARKS
REEDSBURG      SUNNY     53  25  33 N3        30.07F
BARABOO/DELLS  SUNNY     53  21  28 NW5       30.07F
LONE ROCK      NOT AVBL
MINERAL POINT  SUNNY     54  27  35 N5        30.07S
MADISON        MOSUNNY   56  28  34 N12       30.06F
6HR MIN TEMP:  35; 6HR MAX TEMP:  56;

MIDDLETON      SUNNY     55  25  31 NE9       30.07F
WATERTOWN      SUNNY     55  28  35 N7        30.04F
MONROE         SUNNY     54  32  43 N13G20    30.05S
JANESVILLE     SUNNY     55  25  30 N12       30.04F
$$

WIZ051-052-058>065-066-070>072-261900-
SOUTHEAST WISCONSIN

CITY           SKY/WX    TMP DP  RH WIND       PRES   REMARKS
MILWAUKEE      MOSUNNY   47  32  56 NE10      30.05F
6HR MIN TEMP:  38; 6HR MAX TEMP:  48;

WAUKESHA       SUNNY     54  27  35 NE10      30.03F
MILWAUKEE/TIMM NOT AVBL
RACINE         SUNNY     49  32  52 NE13      30.05F
6HR MIN TEMP:  38; 6HR MAX TEMP:  51;

BURLINGTON     SUNNY     54  27  35 NE10G18   30.02F
KENOSHA        SUNNY     55  29  36 N13G20    30.03F
6HR MIN TEMP:  36; 6HR MAX TEMP:  56;

FOND DU LAC    SUNNY     56  25  30 NE13      30.05F
6HR MIN TEMP:  37; 6HR MAX TEMP:  56;

SHEBOYGAN      SUNNY     51  32  48 E10       30.05S
6HR MIN TEMP:  36; 6HR MAX TEMP:  54;

WEST BEND      SUNNY     54  25  32 NE9       30.03F
JUNEAU         SUNNY     53  25  33 N8G17     30.06F
$$

LSZ147-162-261900-
LAKE SUPERIOR

STATION/POSITION TIME  TEMP    WIND        PRES    WAVE
                       AIR SEA DIR/SP/G            HT/PER
                 (UTC) (F)     (DEG/KT/KT) (MB)    (FT/S)
W MID LAKE BUOY  1650   36 35   30/  8/ 10 1024.0R   1/ 3
DEVILS ISLAND    1700   37      70/  7/  8 1023.8R
PORT WING        1740   39      10/  8/ 10 1022.7S
SAXON HARBOR     1700   38      20/  6/  7 1022.4
$$

LMZ867-665-643>646-261900-
LAKE MICHIGAN

STATION/POSITION TIME  TEMP    WIND        PRES    WAVE
                       AIR SEA DIR/SP/G            HT/PER
                 (UTC) (F)     (DEG/KT/KT) (MB)    (FT/S)
CHAMBERS ISLAND  1700   46      60/  6/  9 1018.3F
NORTHPORT PIER   1700   43     320/  6/ 11 1018.3S
SISTER BAY       1632   47     360/ 15/ 18   N/A
KEWAUNEE LAKESHO 1700   43      70/  4/  8 1017.4R
SHEBOYGAN LAKESH 1700   39      40/ 14/ 16 1018.9S
PORT WASHINGTON  1740   42      50/ 11/ 13 1018.3F
MILWAUKEE LAKESH 1700   39      40/ 12/ 13   N/A
KENOSHA   LAKESH 1700   40      30/ 14/ 15 1017.6S
$$

TC  - TEMPERATURE IN CELSIUS
VSB - VISIBILITY IN STATUTE MILES
WCI - WIND CHILL INDEX
HX  - HEAT INDEX




USA.gov is the U.S. government's official web portal to all federal, state and local government web resources and services.